OneWeb SL0614

operational
NORAD ID: 55156 Int'l Des: 2023-004 Owner: ONEWEBN Country: UK Constellation: oneweb
LEOCIRCULARPOLARONEWEB_TYPE

About OneWeb SL0614

Description loading...

Live Position

Loading 3D Globe...

Upcoming Passes

Altitude History

Altitude vs Time

uPlot chart will show altitude changes over time

Two-Line Element Set

1 55156U 23004S 25304.26487164 .00000485 00000-0 13332-2 0 9994
2 55156 87.8847 66.6749 0001371 90.1841 269.9444 13.11416240135830
Epoch: Oct 31, 2025 • Age: 11 hours

Current Status

Altitude 1247.5 km
Velocity 7.23 km/s
Sub-Earth Point -86.46°S, 10.31°W
Launch Date Jan 10, 2023
Age 2.8 years
Type internet

Technical Details

Classification Payload
Mass 148.00 kg
Dry Mass 140.00 kg
Total Mass 148.00 kg
Length 1.30 m
Diameter 1.00 m
Span 5.00 m
Shape Trapezoid+2 pan
Manufacturer ONEWUS
Bus Type ARROW
Phase Status In Orbit
Owner/State ONEWEBN/UK

Large Constellations

Loading constellations...